Weather History for Venice, FL

Change the Weather History Date:

Friday, November 30, 2012

  Actual Average Record
Temperature  
Mean Temperature 68 °F -  
Max Temperature 78 °F 76 °F 84 °F (1972)
Min Temperature 59 °F 56 °F 32 °F (1959)
Cooling Degree Days 4    
Growing Degree Days 18 (Base 50)    
Moisture  
Dew Point 57 °F    
Average Humidity 72    
Maximum Humidity 88    
Minimum Humidity 50    
Precipitation  
Precipitation 0.00 in - - ()
Sea Level Pressure  
Sea Level Pressure 30.20 in    
Wind  
Wind Speed 10 mph (ENE)    
Max Wind Speed 16 mph    
Max Gust Speed 23 mph    
Visibility 10 miles    
Events      
Averages and records for this station are not official NWS values.
T = Trace of Precipitation, MM = Missing Value Source: NWS Daily Summary

Daily Weather History Graph

Daily Weather History Graph

Search for Another Location

Airport:

Trip Planner

Search our weather history database for the weather conditions in past years. The results will help you decide how hot, cold, wet, or windy it might be!

Date:

Astronomy

Nov. 30, 2012 Rise Set
Actual Time 7:01 AM EST 5:35 PM EST
Civil Twilight 6:36 AM EST 6:00 PM EST
Nautical Twilight 6:07 AM EST 6:29 PM EST
Astronomical Twilight 5:39 AM EST 6:57 PM EST
Moon 7:28 PM EST (11/30) 8:33 AM EST (11/30)
Length of Visible Light 11h 24m
Length of Day
10h 34m
Waning Gibbous, 96% of the Moon is Illuminated
Nov 30
Waning Gibbous
Dec 6
Last Quarter
Dec 13
New
Dec 20
First Quarter
Dec 28
Full

Hourly Weather History & Observations

Time (EST) Temp. Dew Point Humidity Pressure Visibility Wind Dir Wind Speed Gust Speed Precip Events Conditions
12:15 AM 59.0 °F 55.4 °F 88% 30.23 in 10.0 mi ENE 11.5 mph - N/A   Unknown
12:35 AM 59.0 °F 55.4 °F 88% 30.23 in 10.0 mi ENE 10.4 mph - N/A   Unknown
12:55 AM 59.0 °F 55.4 °F 88% 30.23 in 10.0 mi ENE 10.4 mph - N/A   Unknown
1:15 AM 59.0 °F 55.4 °F 88% 30.22 in 10.0 mi ENE 11.5 mph - N/A   Unknown
1:35 AM 59.0 °F 55.4 °F 88% 30.21 in 10.0 mi ENE 11.5 mph - N/A   Unknown
1:55 AM 59.0 °F 55.4 °F 88% 30.21 in 10.0 mi NE 12.7 mph - N/A   Unknown
2:15 AM 59.0 °F 55.4 °F 88% 30.21 in 10.0 mi NE 11.5 mph - N/A   Unknown
2:35 AM 59.0 °F 55.4 °F 88% 30.21 in 10.0 mi NE 9.2 mph - N/A   Unknown
2:55 AM 59.0 °F 55.4 °F 88% 30.21 in 10.0 mi NE 10.4 mph - N/A   Unknown
3:15 AM 59.0 °F 55.4 °F 88% 30.21 in 10.0 mi NE 9.2 mph - N/A   Unknown
3:35 AM 59.0 °F 55.4 °F 88% 30.21 in 10.0 mi NE 8.1 mph - N/A   Unknown
3:55 AM 59.0 °F 55.4 °F 88% 30.21 in 10.0 mi NE 10.4 mph - N/A   Unknown
4:15 AM 59.0 °F 55.4 °F 88% 30.21 in 10.0 mi NE 10.4 mph - N/A   Unknown
4:35 AM 59.0 °F 55.4 °F 88% 30.20 in 10.0 mi NE 11.5 mph - N/A   Unknown
4:55 AM 59.0 °F 55.4 °F 88% 30.21 in 10.0 mi NE 9.2 mph - N/A   Unknown
5:15 AM 59.0 °F 55.4 °F 88% 30.21 in 10.0 mi NE 9.2 mph - N/A   Unknown
5:35 AM 59.0 °F 55.4 °F 88% 30.21 in 10.0 mi ENE 9.2 mph - N/A   Unknown
5:55 AM 59.0 °F 55.4 °F 88% 30.21 in 10.0 mi ENE 10.4 mph - N/A   Unknown
6:15 AM 59.0 °F 55.4 °F 88% 30.22 in 10.0 mi NE 9.2 mph - N/A   Unknown
6:35 AM 59.0 °F 55.4 °F 88% 30.22 in 10.0 mi NE 10.4 mph - N/A   Unknown
6:55 AM 59.0 °F 55.4 °F 88% 30.23 in 10.0 mi ENE 9.2 mph - N/A   Unknown
7:15 AM 59.0 °F 55.4 °F 88% 30.24 in 10.0 mi NE 9.2 mph - N/A   Clear
7:35 AM 59.0 °F 55.4 °F 88% 30.24 in 10.0 mi NE 8.1 mph - N/A   Clear
7:55 AM 60.8 °F 55.4 °F 82% 30.24 in 9.0 mi NE 9.2 mph - N/A   Clear
8:15 AM 64.4 °F 55.4 °F 73% 30.24 in 10.0 mi NE 11.5 mph - N/A   Clear
8:35 AM 64.4 °F 55.4 °F 73% 30.24 in 10.0 mi ENE 9.2 mph - N/A   Clear
8:55 AM 68.0 °F 57.2 °F 68% 30.24 in 10.0 mi ENE 9.2 mph - N/A   Clear
9:15 AM 68.0 °F 57.2 °F 68% 30.25 in 10.0 mi NE 12.7 mph 16.1 mph N/A   Clear
9:35 AM 71.6 °F 57.2 °F 60% 30.26 in 10.0 mi ENE 12.7 mph 16.1 mph N/A   Clear
9:55 AM 71.6 °F 57.2 °F 60% 30.25 in 10.0 mi ENE 10.4 mph 17.3 mph N/A   Scattered Clouds
10:15 AM 73.4 °F 57.2 °F 57% 30.26 in 10.0 mi ENE 12.7 mph 18.4 mph N/A   Overcast
10:35 AM 73.4 °F 57.2 °F 57% 30.25 in 10.0 mi East 16.1 mph 20.7 mph N/A   Overcast
10:55 AM 73.4 °F 59.0 °F 61% 30.24 in 10.0 mi East 11.5 mph - N/A   Overcast
11:15 AM 75.2 °F 59.0 °F 57% 30.23 in 9.0 mi East 13.8 mph 19.6 mph N/A   Overcast
11:35 AM 77.0 °F 59.0 °F 54% 30.22 in 9.0 mi East 12.7 mph 23.0 mph N/A   Scattered Clouds
11:55 AM 77.0 °F 59.0 °F 54% 30.21 in 10.0 mi ESE 12.7 mph 20.7 mph N/A   Partly Cloudy
12:15 PM 77.0 °F 59.0 °F 54% 30.21 in 10.0 mi East 16.1 mph - N/A   Scattered Clouds
12:35 PM 77.0 °F 59.0 °F 54% 30.19 in 10.0 mi East 11.5 mph 16.1 mph N/A   Partly Cloudy
12:55 PM 78.8 °F 59.0 °F 51% 30.18 in 10.0 mi ESE 16.1 mph 19.6 mph N/A   Scattered Clouds
1:15 PM 77.0 °F 57.2 °F 50% 30.17 in 10.0 mi East 11.5 mph - N/A   Mostly Cloudy
1:35 PM 77.0 °F 59.0 °F 54% 30.16 in 10.0 mi East 11.5 mph - N/A   Mostly Cloudy
1:55 PM 77.0 °F 57.2 °F 50% 30.16 in 10.0 mi East 9.2 mph - N/A   Mostly Cloudy
2:15 PM 77.0 °F 57.2 °F 50% 30.16 in 10.0 mi East 10.4 mph - N/A   Mostly Cloudy
2:35 PM 77.0 °F 59.0 °F 54% 30.15 in 10.0 mi ENE 11.5 mph - N/A   Scattered Clouds
2:55 PM 77.0 °F 57.2 °F 50% 30.15 in 10.0 mi ENE 10.4 mph - N/A   Mostly Cloudy
3:15 PM 77.0 °F 57.2 °F 50% 30.15 in 10.0 mi East 12.7 mph - N/A   Mostly Cloudy
3:35 PM 77.0 °F 57.2 °F 50% 30.15 in 10.0 mi East 11.5 mph - N/A   Mostly Cloudy
3:55 PM 77.0 °F 57.2 °F 50% 30.16 in 10.0 mi ENE 6.9 mph - N/A   Overcast
4:15 PM 75.2 °F 57.2 °F 53% 30.16 in 10.0 mi NE 5.8 mph - N/A   Overcast
4:35 PM 77.0 °F 57.2 °F 50% 30.16 in 10.0 mi East 8.1 mph - N/A   Overcast
4:55 PM 75.2 °F 59.0 °F 57% 30.16 in 10.0 mi East 6.9 mph - N/A   Overcast
5:15 PM 75.2 °F 59.0 °F 57% 30.16 in 10.0 mi ESE 4.6 mph - N/A   Overcast
5:35 PM 71.6 °F 62.6 °F 73% 30.17 in 10.0 mi Calm Calm - N/A   Unknown
5:55 PM 71.6 °F 62.6 °F 73% 30.18 in 10.0 mi Calm Calm - N/A   Unknown
6:15 PM 69.8 °F 64.4 °F 83% 30.18 in 10.0 mi Calm Calm - N/A   Unknown
6:35 PM 68.0 °F 64.4 °F 88% 30.18 in 10.0 mi Calm Calm - N/A   Unknown
6:55 PM 69.8 °F 57.2 °F 64% 30.18 in 10.0 mi East 6.9 mph - N/A   Unknown
7:15 PM 69.8 °F 57.2 °F 64% 30.18 in 10.0 mi East 4.6 mph - N/A   Unknown
7:35 PM 68.0 °F 57.2 °F 68% 30.18 in 10.0 mi NE 4.6 mph - N/A   Unknown
7:55 PM 68.0 °F 57.2 °F 68% 30.19 in 10.0 mi NE 4.6 mph - N/A   Unknown
8:15 PM 68.0 °F 57.2 °F 68% 30.20 in 10.0 mi NE 4.6 mph - N/A   Unknown
8:35 PM 68.0 °F 57.2 °F 68% 30.20 in 10.0 mi ENE 8.1 mph - N/A   Unknown
8:55 PM 68.0 °F 59.0 °F 73% 30.20 in 10.0 mi ENE 6.9 mph - N/A   Unknown
9:15 PM 66.2 °F 57.2 °F 73% 30.21 in 10.0 mi NE 5.8 mph - N/A   Unknown
9:35 PM 64.4 °F 57.2 °F 77% 30.21 in 10.0 mi NE 6.9 mph - N/A   Unknown
10:15 PM 64.4 °F 57.2 °F 77% 30.21 in 10.0 mi ENE 5.8 mph - N/A   Unknown
10:35 PM 62.6 °F 57.2 °F 82% 30.21 in 10.0 mi ENE 5.8 mph - N/A   Unknown
10:55 PM 62.6 °F 57.2 °F 82% 30.21 in 10.0 mi ENE 4.6 mph - N/A   Unknown
11:15 PM 62.6 °F 57.2 °F 82% 30.20 in 10.0 mi East 4.6 mph - N/A   Unknown
11:35 PM 59.0 °F 55.4 °F 88% 30.20 in 10.0 mi NE 8.1 mph - N/A   Unknown
11:55 PM 60.8 °F 57.2 °F 88% 30.20 in 10.0 mi ENE 8.1 mph - N/A   Unknown